Location: Maiden
(35.5760°N, 81.2120°W)
Time: 09:54:29
(UTC-04:00)

Transit 4A - Visible Passes

Search period start: 04 August 2020 00:00
Search period end: 14 August 2020 00:00
Orbit: 865 x 980 km, 66.8° (Epoch: 04 August)

Date Brightness Start Highest point End Pass type
(mag) Time Alt. Az. Time Alt. Az. Time Alt. Az.
04 Aug 8.9 21:48:43 10° NW 21:54:44 45° WSW 22:00:45 10° S visible
05 Aug 9.6 21:58:30 10° NW 22:03:53 29° WSW 22:09:16 10° SSW visible
06 Aug 10.2 22:08:43 10° WNW 22:12:59 19° WSW 22:17:14 10° SW visible
07 Aug 10.6 22:20:08 10° W 22:21:59 11° W 22:23:50 10° WSW visible
08 Aug 8.7 20:39:33 10° NW 20:45:49 59° WSW 20:52:03 10° S visible
09 Aug 9.4 20:49:10 10° NW 20:55:01 38° WSW 21:00:50 10° S visible
10 Aug 10.1 20:59:05 10° NW 21:04:08 25° WSW 21:09:11 10° SSW visible
11 Aug 10.5 21:09:33 10° WNW 21:13:11 16° WSW 21:16:50 10° SW visible
